H1 CPF 2 NER 2024 3 12 9 072 01 glonass133 H2 1403201 9133 40001 2024 3 12 0 0 0 2024 3 15 23 45 0 900 1 1 0 0 0 1 H9 10 0 60381 0.00000 0 24667780.883 -715997.794 -6416974.235 10 0 60381 900.00000 0 23667758.202 -729542.367 -9461299.210 10 0 60381 1800.00000 0 22317811.598 -577569.963 -12321636.930 10 0 60381 2700.00000 0 20662903.507 -219346.234 -14942392.203 10 0 60381 3600.00000 0 18757344.987 376211.373 -17272648.006 10 0 60381 4500.00000 0 16662594.577 1228980.406 -19267155.231 10 0 60381 5400.00000 0 14444776.725 2346558.487 -20887209.772 10 0 60381 6300.00000 0 12172024.008 3723712.579 -22101400.237 10 0 60381 7200.00000 0 9911754.454 5342376.136 -22886212.291 10 0 60381 8100.00000 0 7727997.448 7172194.752 -23226478.638 10 0 60381 9000.00000 0 5678879.281 9171597.981 -23115666.670 10 0 60381 9900.00000 0 3814372.405 11289353.011 -22555998.913 10 0 60381 10800.00000 0 2174401.027 13466535.893 -21558404.537 10 0 60381 11700.00000 0 787380.719 15638838.670 -20142303.252 10 0 60381 12600.00000 0 -330748.550 17739116.798 -18335225.972 10 0 60381 13500.00000 0 -1176957.109 19700071.243 -16172279.552 10 0 60381 14400.00000 0 -1761011.363 21456953.983 -13695465.770 10 0 60381 15300.00000 0 -2104816.817 22950184.493 -10952867.463 10 0 60381 16200.00000 0 -2241247.177 24127768.345 -7997717.235 10 0 60381 17100.00000 0 -2212509.781 24947417.184 -4887366.472 10 0 60381 18000.00000 0 -2068117.024 25378281.530 -1682174.439 10 0 60381 18900.00000 0 -1862549.975 25402224.001 1555661.131 10 0 60381 19800.00000 0 -1652713.327 25014579.598 4763309.307 10 0 60381 20700.00000 0 -1495289.578 24224371.138 7878523.628 10 0 60381 21600.00000 0 -1444104.646 23053970.682 10840848.455 10 0 60381 22500.00000 0 -1547616.535 21538220.958 13592790.553 10 0 60381 23400.00000 0 -1846633.581 19723053.366 16080933.101 10 0 60381 24300.00000 0 -2372359.054 17663660.124 18256970.649 10 0 60381 25200.00000 0 -3144845.205 15422296.609 20078645.104 10 0 60381 26100.00000 0 -4171922.675 13065805.333 21510564.866 10 0 60381 27000.00000 0 -5448651.260 10662964.346 22524891.519 10 0 60381 27900.00000 0 -6957316.318 8281770.070 23101881.102 10 0 60381 28800.00000 0 -8667972.273 5986767.169 23230269.611 10 0 60381 29700.00000 0 -10539511.910 3836536.003 22907495.362 10 0 60381 30600.00000 0 -12521218.201 1881441.607 22139753.761 10 0 60381 31500.00000 0 -14554735.175 161737.332 20941883.052 10 0 60381 32400.00000 0 -16576376.699 -1293898.438 19337082.769 10 0 60381 33300.00000 0 -18519677.695 -2469332.058 17356469.633 10 0 60381 34200.00000 0 -20318081.776 -3361410.937 15038478.809 10 0 60381 35100.00000 0 -21907653.212 -3979848.729 12428121.432 10 0 60381 36000.00000 0 -23229699.660 -4346564.884 9576112.237 10 0 60381 36900.00000 0 -24233195.411 -4494507.020 6537883.923 10 0 60381 37800.00000 0 -24876902.871 -4466006.489 3372507.323 10 0 60381 38700.00000 0 -25131102.615 -4310737.487 141538.600 10 0 60381 39600.00000 0 -24978858.553 -4083366.918 -3092183.569 10 0 60381 40500.00000 0 -24416764.433 -3840995.517 -6265766.675 10 0 60381 41400.00000 0 -23455139.710 -3640499.656 -9317494.217 10 0 60381 42300.00000 0 -22117666.339 -3535887.541 -12188031.826 10 0 60381 43200.00000 0 -20440481.908 -3575782.816 -14821585.452 10 0 60381 44100.00000 0 -18470767.206 -3801142.960 -17166988.555 10 0 60381 45000.00000 0 -16264887.870 -4243309.727 -19178696.819 10 0 60381 45900.00000 0 -13886168.300 -4922474.579 -20817671.075 10 0 60381 46800.00000 0 -11402391.178 -5846624.317 -22052131.622 10 0 60381 47700.00000 0 -8883127.220 -7011011.694 -22858169.796 10 0 60381 48600.00000 0 -6397006.406 -8398173.582 -23220205.663 10 0 60381 49500.00000 0 -4009043.962 -9978496.288 -23131283.694 10 0 60381 50400.00000 0 -1778131.740 -11711304.670 -22593201.420 10 0 60381 51300.00000 0 245201.601 -13546429.877 -21616469.150 10 0 60381 52200.00000 0 2020669.692 -15426190.656 -20220101.935 10 0 60381 53100.00000 0 3519669.938 -17287705.899 -18431248.018 10 0 60381 54000.00000 0 4726228.930 -19065442.324 -16284660.921 10 0 60381 54900.00000 0 5637413.847 -20693891.365 -13822025.234 10 0 60381 55800.00000 0 6263194.215 -22110263.746 -11091148.861 10 0 60381 56700.00000 0 6625761.176 -23257089.409 -8145037.060 10 0 60381 57600.00000 0 6758334.147 -24084614.205 -5040865.884 10 0 60381 58500.00000 0 6703506.018 -24552893.015 -1838874.711 10 0 60381 59400.00000 0 6511197.490 -24633491.582 1398800.790 10 0 60381 60300.00000 0 6236307.450 -24310725.526 4609332.693 10 0 60381 61200.00000 0 5936159.082 -23582384.315 7730418.405 10 0 60381 62100.00000 0 5667849.982 -22459909.517 10701488.091 10 0 60381 63000.00000 0 5485618.534 -20968019.421 13464878.491 10 0 60381 63900.00000 0 5438338.096 -19143795.308 15966950.266 10 0 60381 64800.00000 0 5567245.114 -17035267.092 18159127.313 10 0 60381 65700.00000 0 5903997.392 -14699556.865 19998838.051 10 0 60381 66600.00000 0 6469144.881 -12200657.295 21450340.672 10 0 60381 67500.00000 0 7271078.040 -9606936.821 22485416.657 10 0 60381 68400.00000 0 8305498.839 -6988474.888 23083919.415 10 0 60381 69300.00000 0 9555437.663 -4414337.423 23234167.578 10 0 60381 70200.00000 0 10991816.581 -1949905.131 22933175.419 10 0 60381 71100.00000 0 12574536.653 345635.018 22186715.778 10 0 60381 72000.00000 0 14254044.997 2421531.448 21009213.960 10 0 60381 72900.00000 0 15973317.185 4237350.164 19423474.124 10 0 60381 73800.00000 0 17670172.997 5764419.694 17460242.819 10 0 60381 74700.00000 0 19279829.226 6986779.079 15157617.403 10 0 60381 75600.00000 0 20737583.013 7901589.939 12560310.145 10 0 60381 76500.00000 0 21981513.232 8518996.003 9718781.711 10 0 60381 77400.00000 0 22955086.212 8861436.661 6688260.534 10 0 60381 78300.00000 0 23609555.829 8962444.296 3527667.060 10 0 60381 79200.00000 0 23906056.299 8864976.942 298463.969 10 0 60381 80100.00000 0 23817298.716 8619357.623 -2936544.707 10 0 60381 81000.00000 0 23328799.210 8280908.623 -6114441.526 10 0 60381 81900.00000 0 22439586.144 7907381.804 -9173425.901 10 0 60381 82800.00000 0 21162356.065 7556294.876 -12054021.847 10 0 60381 83700.00000 0 19523071.527 7282287.441 -14700238.980 10 0 60381 84600.00000 0 17560017.513 7134609.587 -17060663.621 10 0 60381 85500.00000 0 15322356.080 7154849.950 -19089458.422 10 0 60382 0.00000 0 12868240.009 7374999.715 -20747251.005 10 0 60382 900.00000 0 10262563.147 7815934.775 -22001895.447 10 0 60382 1800.00000 0 7574444.737 8486379.897 -22829090.180 10 0 60382 2700.00000 0 4874548.110 9382398.947 -23212844.002 10 0 60382 3600.00000 0 2232348.228 10487432.463 -23145779.581 10 0 60382 4500.00000 0 -286540.087 11772881.160 -22629270.261 10 0 60382 5400.00000 0 -2622862.881 13199211.037 -21673407.942 10 0 60382 6300.00000 0 -4725953.912 14717534.032 -20296803.078 10 0 60382 7200.00000 0 -6555596.297 16271598.335 -18526220.880 10 0 60382 8100.00000 0 -8083442.976 17800105.394 -16396060.770 10 0 60382 9000.00000 0 -9293938.320 19239256.998 -13947688.969 10 0 60382 9900.00000 0 -10184703.939 20525426.110 -11228636.904 10 0 60382 10800.00000 0 -10766374.027 21597839.800 -8291680.608 10 0 60382 11700.00000 0 -11061888.470 22401162.012 -5193818.622 10 0 60382 12600.00000 0 -11105274.589 22887867.820 -1995168.013 10 0 60382 13500.00000 0 -10939969.692 23020309.451 1242200.268 10 0 60382 14400.00000 0 -10616755.918 22772387.077 4455464.115 10 0 60382 15300.00000 0 -10191395.044 22130753.852 7582267.731 10 0 60382 16200.00000 0 -9722063.514 21095504.114 10561930.084 10 0 60382 17100.00000 0 -9266696.320 19680315.274 13336620.891 10 0 60382 18000.00000 0 -8880352.097 17912036.772 15852481.240 10 0 60382 18900.00000 0 -8612710.857 15829742.553 18060667.196 10 0 60382 19800.00000 0 -8505810.096 13483285.883 19918296.345 10 0 60382 20700.00000 0 -8592114.972 10931416.013 21389279.097 10 0 60382 21600.00000 0 -8893004.175 8239534.352 22445018.981 10 0 60382 22500.00000 0 -9417735.700 5477182.698 23064968.609 10 0 60382 23400.00000 0 -10162936.646 2715367.166 23237030.714 10 0 60382 24300.00000 0 -11112639.294 23828.176 22957796.576 10 0 60382 25200.00000 0 -12238862.919 -2531630.863 22232617.089 10 0 60382 26100.00000 0 -13502717.912 -4891645.916 21075504.742 10 0 60382 27000.00000 0 -14855986.958 -7005522.381 19508867.955 10 0 60382 27900.00000 0 -16243117.850 -8833100.695 17563082.238 10 0 60382 28800.00000 0 -17603545.026 -10346180.297 15275905.787 10 0 60382 29700.00000 0 -18874242.865 -11529443.084 12691750.201 10 0 60382 30600.00000 0 -19992403.593 -12380838.346 9860819.858 10 0 60382 31500.00000 0 -20898127.014 -12911413.640 6838136.366 10 0 60382 32400.00000 0 -21537008.404 -13144599.465 3682466.932 10 0 60382 33300.00000 0 -21862514.806 -13114978.627 455177.677 10 0 60382 34200.00000 0 -21838048.790 -12866593.228 -2780965.273 10 0 60382 35100.00000 0 -21438611.681 -12450861.690 -5963022.916 10 0 60382 36000.00000 0 -20651995.144 -11924194.911 -9029114.035 10 0 60382 36900.00000 0 -19479450.194 -11345413.570 -11919624.512 10 0 60382 37800.00000 0 -17935804.784 -10773076.801 -14578371.049 10 0 60382 38700.00000 0 -16049024.532 -10262836.158 -16953696.069 10 0 60382 39600.00000 0 -13859234.776 -9864927.403 -18999472.177 10 0 60382 40500.00000 0 -11417244.698 -9621906.532 -20675996.629 10 0 60382 41400.00000 0 -8782635.180 -9566725.855 -21950758.757 10 0 60382 42300.00000 0 -6021490.124 -9721231.236 -22799065.902 10 0 60382 43200.00000 0 -3203865.585 -10095143.662 -23204516.439 10 0 60382 44100.00000 0 -401101.701 -10685567.773 -23159311.455 10 0 60382 45000.00000 0 2316911.357 -11477047.757 -22664399.739 10 0 60382 45900.00000 0 4884400.585 -12442168.100 -21729453.903 10 0 60382 46800.00000 0 7242200.733 -13542673.889 -20372678.477 10 0 60382 47700.00000 0 9339965.907 -14731063.691 -18620453.949 10 0 60382 48600.00000 0 11138011.579 -15952588.324 -16506823.615 10 0 60382 49500.00000 0 12608711.738 -17147571.882 -14072833.029 10 0 60382 50400.00000 0 13737394.349 -18253957.822 -11365734.587 10 0 60382 51300.00000 0 14522699.138 -19209973.482 -8438072.315 10 0 60382 52200.00000 0 14976384.081 -19956801.203 -5346664.280 10 0 60382 53100.00000 0 15122589.862 -20441143.882 -2151502.127 10 0 60382 54000.00000 0 14996594.274 -20617576.970 1085411.071 10 0 60382 54900.00000 0 14643109.785 -20450587.759 4301262.195 10 0 60382 55800.00000 0 14114196.653 -19916215.807 7433645.305 10 0 60382 56700.00000 0 13466880.064 -19003224.952 10421771.055 10 0 60382 57600.00000 0 12760572.135 -17713757.000 13207644.762 10 0 60382 58500.00000 0 12054407.731 -16063438.782 15737190.243 10 0 60382 59400.00000 0 11404606.593 -14080937.203 17961297.669 10 0 60382 60300.00000 0 10861973.025 -11806979.832 19836775.302 10 0 60382 61200.00000 0 10469638.537 -9292880.935 21327186.866 10 0 60382 62100.00000 0 10261142.572 -6598633.317 22403558.591 10 0 60382 63000.00000 0 10258932.212 -3790644.371 23044942.524 10 0 60382 63900.00000 0 10473344.231 -939209.452 23238825.335 10 0 60382 64800.00000 0 10902112.676 1884173.400 22981374.802 10 0 60382 65700.00000 0 11530423.232 4609536.804 22277519.047 10 0 60382 66600.00000 0 12331512.746 7171112.720 21140856.689 10 0 60382 67500.00000 0 13267789.474 9509826.300 19593399.155 10 0 60382 68400.00000 0 14292427.696 11575511.858 17665149.502 10 0 60382 69300.00000 0 15351370.322 13328759.177 15393525.230 10 0 60382 70200.00000 0 16385655.677 14742313.656 12822635.602 10 0 60382 71100.00000 0 17333970.746 15801972.259 10002426.923 10 0 60382 72000.00000 0 18135323.222 16506938.245 6987712.048 10 0 60382 72900.00000 0 18731719.299 16869620.352 3837102.879 10 0 60382 73800.00000 0 19070733.614 16914885.601 611866.792 10 0 60382 74700.00000 0 19107861.998 16678797.971 -2625270.280 10 0 60382 75600.00000 0 18808556.712 16206897.073 -5811350.118 10 0 60382 76500.00000 0 18149857.298 15552090.543 -8884413.186 10 0 60382 77400.00000 0 17121547.124 14772250.118 -11784709.467 10 0 60382 78300.00000 0 15726786.058 13927614.124 -14455864.851 10 0 60382 79200.00000 0 13982191.980 13078107.038 -16845979.813 10 0 60382 80100.00000 0 11917367.026 12280690.008 -18908638.669 10 0 60382 81000.00000 0 9573888.023 11586854.626 -20603809.772 10 0 60382 81900.00000 0 7003803.033 11040365.873 -21898619.429 10 0 60382 82800.00000 0 4267696.523 10675349.266 -22767984.983 10 0 60382 83700.00000 0 1432403.536 10514802.428 -23195095.462 10 0 60382 84600.00000 0 -1431532.413 10569593.219 -23171731.217 10 0 60382 85500.00000 0 -4252552.484 10837985.993 -22698417.059 10 0 60383 0.00000 0 -6960815.315 11305715.284 -21784406.639 10 0 60383 900.00000 0 -9490858.296 11946603.627 -20447498.260 10 0 60383 1800.00000 0 -11784074.175 12723696.549 -18713687.197 10 0 60383 2700.00000 0 -13790906.100 13590867.697 -16616659.698 10 0 60383 3600.00000 0 -15472667.356 14494826.001 -14197139.383 10 0 60383 4500.00000 0 -16802912.770 15377440.769 -11502098.058 10 0 60383 5400.00000 0 -17768305.559 16178286.981 -8583845.955 10 0 60383 6300.00000 0 -18368944.654 16837303.768 -5499018.694 10 0 60383 7200.00000 0 -18618139.873 17297454.188 -2307480.386 10 0 60383 8100.00000 0 -18541645.383 17507274.186 928836.029 10 0 60383 9000.00000 0 -18176384.513 17423203.160 4147128.787 10 0 60383 9900.00000 0 -17568720.208 17011597.589 7284944.300 10 0 60383 10800.00000 0 -16772344.505 16250342.369 10281387.497 10 0 60383 11700.00000 0 -15845876.243 15129991.353 13078301.966 10 0 60383 12600.00000 0 -14850268.465 13654388.268 15621396.938 10 0 60383 13500.00000 0 -13846134.803 11840740.900 17861299.333 10 0 60383 14400.00000 0 -12891107.403 9719144.294 19754510.633 10 0 60383 15300.00000 0 -12037337.508 7331571.664 21264250.214 10 0 60383 16200.00000 0 -11329243.700 4730373.864 22361169.096 10 0 60383 17100.00000 0 -10801602.375 1976348.644 23023920.527 10 0 60383 18000.00000 0 -10478060.595 -863541.172 23239576.523 10 0 60383 18900.00000 0 -10370133.864 -3718706.900 23003882.369 10 0 60383 19800.00000 0 -10476731.034 -6517626.224 22321344.007 10 0 60383 20700.00000 0 -10784226.596 -9190577.478 21205146.341 10 0 60383 21600.00000 0 -11267077.676 -11672303.206 19676903.523 10 0 60383 22500.00000 0 -11888960.198 -13904492.893 17766245.451 10 0 60383 23400.00000 0 -12604376.838 -15837981.996 15510247.809 10 0 60383 24300.00000 0 -13360669.349 -17434576.006 12952716.028 10 0 60383 25200.00000 0 -14100350.611 -18668423.717 10143336.503 10 0 60383 26100.00000 0 -14763657.939 -19526882.547 7136711.206 10 0 60383 27000.00000 0 -15291219.510 -20010839.964 3991294.357 10 0 60383 27900.00000 0 -15626720.675 -20134478.082 768251.974 10 0 60383 28800.00000 0 -15719456.673 -19924491.886 -2469733.003 10 0 60383 29700.00000 0 -15526662.839 -19418794.797 -5659686.105 10 0 60383 30600.00000 0 -15015522.741 -18664766.936 -8739572.611 10 0 60383 31500.00000 0 -14164768.330 -17717121.015 -11649509.847 10 0 60383 32400.00000 0 -12965803.587 -16635476.970 -14332936.170 10 0 60383 33300.00000 0 -11423303.371 -15481748.513 -16737713.343 10 0 60383 34200.00000 0 -9555261.511 -14317452.645 -18817140.475 10 0 60383 35100.00000 0 -7392485.481 -13201056.057 -20530859.812 10 0 60383 36000.00000 0 -4977558.235 -12185470.374 -21845637.029 10 0 60383 36900.00000 0 -2363310.207 -11315801.625 -22736001.368 10 0 60383 37800.00000 0 389135.245 -10627448.163 -23184733.850 10 0 60383 38700.00000 0 3212661.984 -10144626.349 -23183194.859 10 0 60383 39600.00000 0 6036711.708 -9879385.129 -22731485.434 10 0 60383 40500.00000 0 8789979.656 -9831149.993 -21838439.779 10 0 60383 41400.00000 0 11403144.263 -9986814.616 -20521449.534 10 0 60383 42300.00000 0 13811518.223 -10321375.567 -18806123.467 10 0 60383 43200.00000 0 15957511.806 -10799082.806 -16725789.205 10 0 60383 44100.00000 0 17792807.071 -11375057.156 -14320846.467 10 0 60383 45000.00000 0 19280153.480 -11997306.451 -11637984.121 10 0 60383 45900.00000 0 20394711.171 -12609055.306 -8729275.885 10 0 60383 46800.00000 0 21124886.828 -13151290.333 -5651171.877 10 0 60383 47700.00000 0 21472628.147 -13565413.427 -2463405.334 10 0 60383 48600.00000 0 21453165.451 -13795891.155 772164.449 10 0 60383 49500.00000 0 21094212.059 -13792788.297 3992750.645 10 0 60383 50400.00000 0 20434657.626 -13514078.347 7135855.544 10 0 60383 51300.00000 0 19522809.883 -12927633.070 10140481.700 10 0 60383 52200.00000 0 18414259.055 -12012806.607 12948314.032 10 0 60383 53100.00000 0 17169455.025 -10761546.589 15504849.879 10 0 60383 54000.00000 0 15851099.199 -9178984.532 17760455.182 10 0 60383 54900.00000 0 14521460.668 -7283479.498 19671326.452 10 0 60383 55800.00000 0 13239729.307 -5106111.895 21200340.059 10 0 60383 56700.00000 0 12059516.732 -2689647.129 22317772.672 10 0 60383 57600.00000 0 11026609.731 -87010.920 23001879.133 10 0 60383 58500.00000 0 10177070.172 2640661.637 23239316.741 10 0 60383 59400.00000 0 9535760.816 5426323.419 23025407.784 10 0 60383 60300.00000 0 9115358.724 8199564.772 22364235.135 10 0 60383 61200.00000 0 8915897.543 10889310.257 21268568.734 10 0 60383 62100.00000 0 8924857.888 13426551.418 19759623.915 10 0 60383 63000.00000 0 9117802.074 15747002.646 17866655.629 10 0 60383 63900.00000 0 9459526.603 17793570.031 15626395.755 10 0 60383 64800.00000 0 9905683.919 19518530.591 13082343.749 10 0 60383 65700.00000 0 10404805.049 20885331.151 10283923.818 10 0 60383 66600.00000 0 10900637.576 21869931.685 7285524.661 10 0 60383 67500.00000 0 11334699.817 22461637.055 4145440.335 10 0 60383 68400.00000 0 11648942.600 22663382.408 924732.963 10 0 60383 69300.00000 0 11788405.253 22491460.536 -2313960.054 10 0 60383 70200.00000 0 11703752.493 21974703.384 -5507650.507 10 0 60383 71100.00000 0 11353583.816 21153152.637 -8594230.875 10 0 60383 72000.00000 0 10706416.545 20076276.173 -11513688.047 10 0 60383 72900.00000 0 9742257.727 18800806.566 -14209274.868 10 0 60383 73800.00000 0 8453697.522 17388293.575 -16628616.172 10 0 60383 74700.00000 0 6846477.129 15902474.472 -18724727.409 10 0 60383 75600.00000 0 4939506.552 14406573.391 -20456926.040 10 0 60383 76500.00000 0 2764330.756 12960643.607 -21791618.235 10 0 60383 77400.00000 0 364065.995 11619064.409 -22702946.047 10 0 60383 78300.00000 0 -2208149.805 10428297.282 -23173283.184 10 0 60383 79200.00000 0 -4891128.557 9424994.860 -23193570.503 10 0 60383 80100.00000 0 -7617943.865 8634541.049 -22763485.417 10 0 60383 81000.00000 0 -10318487.691 8070082.446 -21891442.559 10 0 60383 81900.00000 0 -12922166.315 7732090.472 -20594426.143 10 0 60383 82800.00000 0 -15360624.293 7608471.514 -18897657.507 10 0 60383 83700.00000 0 -17570384.058 7675219.390 -16834104.303 10 0 60383 84600.00000 0 -19495292.272 7897581.882 -14443840.715 10 0 60383 85500.00000 0 -21088671.935 8231691.629 -11773270.814 10 0 60384 0.00000 0 -22315091.351 8626592.191 -8874230.068 10 0 60384 900.00000 0 -23151677.528 9026573.815 -5802980.483 10 0 60384 1800.00000 0 -23588918.299 9373719.614 -2619122.543 10 0 60384 2700.00000 0 -23630922.466 9610555.235 615560.281 10 0 60384 3600.00000 0 -23295125.959 9682689.418 3838298.325 10 0 60384 4500.00000 0 -22611457.516 9541333.848 6986552.034 10 0 60384 5400.00000 0 -21620999.227 9145595.508 9999223.932 10 0 60384 6300.00000 0 -20374198.438 8464444.223 12817842.658 10 0 60384 7200.00000 0 -18928706.300 7478271.730 15387696.058 10 0 60384 8100.00000 0 -17346933.748 6179975.693 17658891.429 10 0 60384 9000.00000 0 -15693427.410 4575521.948 19587322.506 10 0 60384 9900.00000 0 -14032175.337 2683960.094 21135524.631 10 0 60384 10800.00000 0 -12423955.183 536890.323 22273401.805 10 0 60384 11700.00000 0 -10923835.572 -1822597.769 22978811.804 10 0 60384 12600.00000 0 -9578934.882 -4341471.638 23237998.162 10 0 60384 13500.00000 0 -8426530.847 -6958724.592 23045860.743 10 0 60384 14400.00000 0 -7492599.697 -9607686.362 22406059.529 10 0 60384 15300.00000 0 -6790845.703 -12218580.526 21330949.303 10 0 60384 16200.00000 0 -6322261.452 -14721223.382 19841346.036 10 0 60384 17100.00000 0 -6075237.064 -17047752.736 17966128.852 10 0 60384 18000.00000 0 -6026213.556 -19135273.418 15741684.647 10 0 60384 18900.00000 0 -6140852.614 -20928309.511 13211205.440 10 0 60384 19800.00000 0 -6375673.275 -22380960.996 10423851.562 10 0 60384 20700.00000 0 -6680086.089 -23458674.553 7433796.557 10 0 60384 21600.00000 0 -6998738.367 -24139554.269 4299172.260 10 0 60384 22500.00000 0 -7274070.696 -24415157.194 1080934.712 10 0 60384 23400.00000 0 -7448975.698 -24290740.410 -2158326.563 10 0 60384 24300.00000 0 -7469445.565 -23784949.384 -5355612.076 10 0 60384 25200.00000 0 -7287095.160 -22928961.069 -8448744.131 10 0 60384 26100.00000 0 -6861452.812 -21765118.432 -11377581.926 10 0 60384 27000.00000 0 -6161920.819 -20345114.572 -14085195.624 10 0 60384 27900.00000 0 -5169321.770 -18727803.580 -16518975.989 10 0 60384 28800.00000 0 -3876964.548 -16976731.025 -18631657.605 10 0 60384 29700.00000 0 -2291184.256 -15157488.345 -20382235.760 10 0 60384 30600.00000 0 -431332.635 -13335002.609 -21736759.442 10 0 60384 31500.00000 0 1670781.293 -11570875.420 -22668985.458 10 0 60384 32400.00000 0 3971977.537 -9920882.163 -23160881.715 10 0 60384 33300.00000 0 6419273.669 -8432735.711 -23202970.583 10 0 60384 34200.00000 0 8951870.714 -7144207.266 -22794506.415 10 0 60384 35100.00000 0 11503474.329 -6081681.794 -21943484.400 10 0 60384 36000.00000 0 14004855.368 -5259207.193 -20666481.035 10 0 60384 36900.00000 0 16386543.966 -4678075.638 -18988329.517 10 0 60384 37800.00000 0 18581545.820 -4326953.303 -16941636.419 10 0 60384 38700.00000 0 20527968.370 -4182551.803 -14566148.844 10 0 60384 39600.00000 0 22171448.144 -4210812.101 -11907984.093 10 0 60384 40500.00000 0 23467278.805 -4368550.250 -9018736.431 10 0 60384 41400.00000 0 24382151.653 -4605495.000 -5954477.966 10 0 60384 42300.00000 0 24895436.398 -4866630.876 -2774672.745 10 0 60384 43200.00000 0 24999949.078 -5094747.512 458975.023 10 0 60384 44100.00000 0 24702175.372 -5233087.236 3683716.401 10 0 60384 45000.00000 0 24021940.232 -5227978.808 6836973.578 10 0 60384 45900.00000 0 22991537.923 -5031345.658 9857552.507 10 0 60384 46800.00000 0 21654359.087 -4602982.286 12686828.778 10 0 60384 47700.00000 0 20063072.476 -3912502.113 15269883.660 10 0 60384 48600.00000 0 18277437.513 -2940873.941 17556568.356 10 0 60384 49500.00000 0 16361839.207 -1681481.309 19502475.973 10 0 60384 50400.00000 0 14382648.374 -140659.104 21069802.541 10 0 60384 51300.00000 0 12405517.312 1662316.485 22228080.674 10 0 60384 52200.00000 0 10492723.527 3695785.720 22954771.904 10 0 60384 53100.00000 0 8700672.086 5916789.020 23235706.364 10 0 60384 54000.00000 0 7077660.401 8272632.940 23065361.376 10 0 60384 54900.00000 0 5661998.276 10702874.641 22446973.442 10 0 60384 55800.00000 0 4480561.301 13141643.459 21392481.144 10 0 60384 56700.00000 0 3547837.558 15520204.001 19922299.619 10 0 60384 57600.00000 0 2865507.084 17769654.855 18064930.325 10 0 60384 58500.00000 0 2422571.280 19823650.930 15856413.019 10 0 60384 59400.00000 0 2196026.371 21621036.128 13339629.895 10 0 60384 60300.00000 0 2152052.093 23108276.404 10563474.814 10 0 60384 61200.00000 0 2247665.006 24241591.206 7581903.428 10 0 60384 62100.00000 0 2432765.983 24988693.760 4452882.524 10 0 60384 63000.00000 0 2652494.634 25330066.810 1237259.171 10 0 60384 63900.00000 0 2849790.144 25259720.046 -2002427.855 10 0 60384 64800.00000 0 2968049.131 24785397.213 -5203170.604 10 0 60384 65700.00000 0 2953766.909 23928224.284 -8302723.859 10 0 60384 66600.00000 0 2759049.210 22721813.646 -11240821.577 10 0 60384 67500.00000 0 2343886.953 21210862.461 -13960353.440 10 0 60384 68400.00000 0 1678096.856 19449304.778 -16408478.057 10 0 60384 69300.00000 0 742845.018 17498095.504 -18537650.771 10 0 60384 70200.00000 0 -468311.596 15422719.836 -20306546.044 10 0 60384 71100.00000 0 -1948910.339 13290532.898 -21680856.751 10 0 60384 72000.00000 0 -3679616.977 11168041.175 -22633955.276 10 0 60384 72900.00000 0 -5628807.860 9118239.278 -23147404.252 10 0 60384 73800.00000 0 -7753676.385 7198112.828 -23211307.786 10 0 60384 74700.00000 0 -10001818.039 5456410.945 -22824497.046 10 0 60384 75600.00000 0 -12313228.514 3931780.229 -21994547.271 10 0 60384 76500.00000 0 -14622632.202 2651336.791 -20737626.307 10 0 60384 77400.00000 0 -16862044.677 1629734.537 -19078177.883 10 0 60384 78300.00000 0 -18963463.070 868767.140 -17048445.788 10 0 60384 79200.00000 0 -20861572.892 357518.868 -14687848.047 10 0 60384 80100.00000 0 -22496358.976 73056.628 -12042212.968 10 0 60384 81000.00000 0 -23815512.176 -18367.035 -9162891.539 10 0 60384 81900.00000 0 -24776531.718 40348.482 -6105763.036 10 0 60384 82800.00000 0 -25348435.655 199202.860 -2930152.894 10 0 60384 83700.00000 0 -25513008.115 403447.429 302316.361 10 0 60384 84600.00000 0 -25265531.264 596139.498 3528918.948 10 0 60384 85500.00000 0 -24614971.393 720790.200 6687041.210 99